Powrót do katalogu

STARLINK-34921

AktywnyŁącznośćVLEO
NORAD 65893·PAYLOAD·🇺🇸 United States

Wystrzelony Oct 7, 2025 z Cape Canaveral Space Force Station

Loading…

Następne Przeloty (najbliższe 24 godziny)

TLE

ŚwieżeSource: CelesTrak SupGP

Epoka: Sep 14, 2026, 15:22 UTC

1 65893C 25224M   26257.64076389  .00015084  00000+0  44583-3 0  2572
2 65893  53.1577 213.0480 0001474  90.2695 230.5778 15.34370293    16

Śledź STARLINK-34921 w czasie rzeczywistym z AllMySat

Download on the App Store